�������l�o���
Date,Time,MP-1(��Sv/h),MP-2(��Sv/h),MP-3(��Sv/h),MP-4(��Sv/h),MP-5(��Sv/h),MP-6(��Sv/h),MP-7(��Sv/h),MP-8(��Sv/h),����,����(m/s),���J
2022/03/17,00:00,0.587,0.872,0.557,1.073,0.765,0.350,0.612,0.576,�k,4.1,��
2022/03/17,00:10,0.587,0.871,0.558,1.072,0.767,0.350,0.613,0.577,�k,3.7,��
2022/03/17,00:20,0.588,0.874,0.560,1.071,0.765,0.350,0.612,0.577,�k,3.6,��
2022/03/17,00:30,0.588,0.872,0.559,1.073,0.765,0.350,0.612,0.576,�k�k��,3.6,��
2022/03/17,00:40,0.586,0.870,0.559,1.073,0.764,0.349,0.612,0.577,�k�k��,3.0,��
2022/03/17,00:50,0.587,0.871,0.560,1.072,0.765,0.350,0.611,0.577,�k�k��,2.0,��
2022/03/17,01:00,0.586,0.872,0.559,1.072,0.765,0.350,0.611,0.577,�k�k��,2.2,��
2022/03/17,01:10,0.585,0.871,0.558,1.074,0.765,0.349,0.612,0.578,�k�k��,2.6,��
2022/03/17,01:20,0.589,0.873,0.558,1.069,0.766,0.349,0.611,0.577,�k,3.8,��
2022/03/17,01:30,0.587,0.873,0.559,1.073,0.764,0.350,0.611,0.578,�k�k��,4.7,��
2022/03/17,01:40,0.589,0.868,0.559,1.073,0.765,0.350,0.612,0.578,�k�k��,3.9,��
2022/03/17,01:50,0.589,0.872,0.558,1.071,0.766,0.351,0.610,0.576,�k��,2.9,��
2022/03/17,02:00,0.584,0.874,0.559,1.074,0.764,0.351,0.611,0.578,�k��,3.1,��
2022/03/17,02:10,0.588,0.872,0.559,1.074,0.764,0.350,0.611,0.577,���k��,3.9,��
2022/03/17,02:20,0.589,0.873,0.558,1.073,0.765,0.352,0.613,0.577,�k��,8.3,��
2022/03/17,02:30,0.588,0.872,0.560,1.073,0.764,0.350,0.612,0.577,���k��,8.0,��
2022/03/17,02:40,0.587,0.871,0.559,1.073,0.766,0.350,0.613,0.577,���k��,6.4,��
2022/03/17,02:50,0.588,0.872,0.559,1.072,0.764,0.350,0.611,0.578,�k��,5.4,��
2022/03/17,03:00,0.589,0.872,0.558,1.073,0.766,0.351,0.611,0.578,�k��,4.1,��
2022/03/17,03:10,0.588,0.871,0.558,1.071,0.763,0.350,0.612,0.579,�k��,2.8,��
2022/03/17,03:20,0.588,0.871,0.557,1.072,0.765,0.350,0.611,0.578,�k�k��,2.0,��
2022/03/17,03:30,0.587,0.870,0.560,1.071,0.764,0.351,0.612,0.578,�k�k��,2.3,��
2022/03/17,03:40,0.588,0.873,0.558,1.073,0.763,0.350,0.610,0.577,�k��,2.6,��
2022/03/17,03:50,0.588,0.871,0.559,1.075,0.765,0.349,0.610,0.578,���k��,5.1,��
2022/03/17,04:00,0.587,0.871,0.560,1.074,0.765,0.350,0.612,0.579,���k��,5.4,��
2022/03/17,04:10,0.587,0.872,0.560,1.073,0.764,0.350,0.613,0.576,�k��,6.2,��
2022/03/17,04:20,0.591,0.870,0.560,1.071,0.764,0.351,0.613,0.577,�k��,5.6,��
2022/03/17,04:30,0.588,0.871,0.558,1.072,0.765,0.349,0.613,0.578,���k��,4.7,��
2022/03/17,04:40,0.588,0.869,0.560,1.072,0.766,0.351,0.612,0.577,���k��,5.3,��
2022/03/17,04:50,0.589,0.871,0.557,1.071,0.766,0.349,0.611,0.577,���k��,7.2,��
2022/03/17,05:00,0.588,0.871,0.558,1.076,0.766,0.351,0.612,0.575,���k��,7.8,��
2022/03/17,05:10,0.588,0.872,0.559,1.073,0.764,0.349,0.613,0.578,���k��,6.7,��
2022/03/17,05:20,0.587,0.872,0.560,1.073,0.765,0.351,0.613,0.579,���k��,5.3,��
2022/03/17,05:30,0.588,0.870,0.559,1.072,0.764,0.350,0.612,0.577,�k��,3.4,��
2022/03/17,05:40,0.587,0.871,0.560,1.074,0.766,0.349,0.612,0.577,�k��,3.3,��
2022/03/17,05:50,0.587,0.870,0.559,1.073,0.764,0.350,0.611,0.577,�k��,5.2,��
2022/03/17,06:00,0.585,0.871,0.560,1.072,0.764,0.351,0.611,0.577,�k��,4.5,��
2022/03/17,06:10,0.588,0.870,0.559,1.073,0.763,0.350,0.613,0.578,�k�k��,4.2,��
2022/03/17,06:20,0.588,0.870,0.560,1.074,0.764,0.349,0.610,0.576,�k�k��,4.9,�L
2022/03/17,06:30,0.589,0.869,0.559,1.074,0.765,0.349,0.611,0.578,�k,3.2,��
2022/03/17,06:40,0.587,0.871,0.558,1.074,0.766,0.350,0.612,0.579,�k�k��,3.3,��
2022/03/17,06:50,0.587,0.871,0.560,1.074,0.765,0.351,0.612,0.576,�k,2.6,��
2022/03/17,07:00,0.587,0.871,0.558,1.072,0.763,0.350,0.612,0.578,�k,2.3,��
2022/03/17,07:10,0.588,0.872,0.557,1.074,0.765,0.350,0.612,0.576,�k��,2.0,��
2022/03/17,07:20,0.589,0.872,0.558,1.073,0.767,0.352,0.613,0.578,���k��,1.7,��
2022/03/17,07:30,0.587,0.873,0.558,1.072,0.764,0.349,0.613,0.576,���k��,1.5,��
2022/03/17,07:40,0.587,0.871,0.560,1.074,0.765,0.351,0.614,0.577,��,1.4,��
2022/03/17,07:50,0.587,0.872,0.559,1.075,0.766,0.348,0.612,0.576,�k��,1.5,��
2022/03/17,08:00,0.590,0.872,0.557,1.074,0.765,0.350,0.614,0.575,�k��,1.5,��
2022/03/17,08:10,0.590,0.873,0.559,1.074,0.766,0.349,0.612,0.577,�k�k��,1.4,��
2022/03/17,08:20,0.589,0.870,0.558,1.074,0.765,0.348,0.613,0.577,�k,3.7,��
2022/03/17,08:30,0.588,0.872,0.558,1.074,0.765,0.349,0.612,0.577,�k�k��,4.2,��
2022/03/17,08:40,0.588,0.873,0.558,1.076,0.766,0.347,0.611,0.578,�k�k��,4.1,��
2022/03/17,08:50,0.588,0.870,0.559,1.074,0.766,0.350,0.612,0.579,�k��,4.0,��
2022/03/17,09:00,0.588,0.868,0.559,1.075,0.765,0.349,0.609,0.577,���k��,4.8,��
2022/03/17,09:10,0.588,0.870,0.559,1.075,0.766,0.349,0.610,0.579,��,5.5,��
2022/03/17,09:20,0.588,0.870,0.560,1.074,0.765,0.350,0.611,0.579,��,5.0,��
2022/03/17,09:30,0.589,0.871,0.560,1.075,0.764,0.349,0.611,0.577,��,4.1,��
2022/03/17,09:40,0.587,0.870,0.558,1.076,0.765,0.350,0.610,0.579,��,6.5,��
2022/03/17,09:50,0.590,0.873,0.559,1.074,0.766,0.350,0.610,0.578,���쓌,6.7,��
2022/03/17,10:00,0.588,0.869,0.558,1.074,0.766,0.350,0.611,0.576,���쓌,5.9,��
2022/03/17,10:10,0.588,0.870,0.559,1.075,0.767,0.350,0.610,0.575,���쓌,4.3,��
2022/03/17,10:20,0.589,0.872,0.560,1.075,0.767,0.350,0.610,0.575,���쓌,3.4,��
2022/03/17,10:30,0.589,0.870,0.561,1.076,0.766,0.350,0.612,0.575,���쓌,4.1,��
2022/03/17,10:40,0.589,0.871,0.561,1.074,0.766,0.349,0.611,0.575,���쓌,4.7,��
2022/03/17,10:50,0.589,0.871,0.562,1.076,0.766,0.351,0.610,0.575,���쓌,5.6,��
2022/03/17,11:00,0.588,0.872,0.560,1.076,0.766,0.350,0.612,0.576,���쓌,4.1,��
2022/03/17,11:10,0.590,0.874,0.558,1.073,0.767,0.348,0.611,0.575,���쓌,3.9,��
2022/03/17,11:20,0.587,0.872,0.559,1.077,0.767,0.350,0.610,0.577,���쓌,4.2,��
2022/03/17,11:30,0.589,0.873,0.559,1.076,0.767,0.350,0.611,0.576,��,3.4,��
2022/03/17,11:40,0.589,0.874,0.561,1.075,0.766,0.347,0.610,0.576,��,3.9,��
2022/03/17,11:50,0.590,0.873,0.559,1.077,0.767,0.349,0.613,0.575,���쓌,3.1,��
2022/03/17,12:00,0.591,0.872,0.559,1.078,0.767,0.348,0.613,0.577,���쓌,3.0,��
2022/03/17,12:10,0.589,0.872,0.560,1.078,0.768,0.348,0.610,0.575,��,2.9,��
2022/03/17,12:20,0.592,0.875,0.559,1.078,0.766,0.348,0.610,0.577,��,2.3,��
2022/03/17,12:30,0.588,0.874,0.558,1.078,0.767,0.349,0.611,0.575,��,1.5,��
2022/03/17,12:40,0.590,0.873,0.558,1.078,0.767,0.349,0.612,0.576,���k��,2.6,��
2022/03/17,12:50,0.590,0.874,0.560,1.079,0.766,0.350,0.613,0.576,�쓌,2.3,��
2022/03/17,13:00,0.588,0.873,0.560,1.077,0.769,0.352,0.611,0.577,�k��,3.3,��
2022/03/17,13:10,0.588,0.873,0.558,1.077,0.767,0.351,0.612,0.577,��,3.4,��
2022/03/17,13:20,0.590,0.873,0.559,1.077,0.768,0.351,0.611,0.577,���쓌,2.9,��
2022/03/17,13:30,0.590,0.874,0.560,1.078,0.768,0.352,0.611,0.576,���쓌,1.7,��
2022/03/17,13:40,0.590,0.874,0.559,1.078,0.767,0.350,0.612,0.574,��,2.9,��
2022/03/17,13:50,0.590,0.874,0.559,1.077,0.768,0.351,0.612,0.575,��,3.8,��
2022/03/17,14:00,0.589,0.873,0.559,1.078,0.769,0.351,0.611,0.575,��,4.0,��
2022/03/17,14:10,0.588,0.873,0.558,1.081,0.767,0.351,0.613,0.576,��,3.5,��
2022/03/17,14:20,0.590,0.874,0.558,1.078,0.769,0.350,0.613,0.576,���쓌,2.6,��
2022/03/17,14:30,0.590,0.875,0.561,1.079,0.769,0.349,0.611,0.576,�쓌,4.2,��
2022/03/17,14:40,0.590,0.876,0.560,1.078,0.770,0.350,0.612,0.576,�쓌,4.2,��
2022/03/17,14:50,0.590,0.876,0.559,1.080,0.768,0.350,0.610,0.577,�쓌,5.2,��
2022/03/17,15:00,0.589,0.875,0.561,1.078,0.770,0.350,0.612,0.576,�쓌,3.6,��
2022/03/17,15:10,0.590,0.876,0.561,1.078,0.767,0.351,0.611,0.576,�쓌,4.7,��
2022/03/17,15:20,0.589,0.876,0.560,1.079,0.767,0.351,0.612,0.576,��쓌,5.3,��
2022/03/17,15:30,0.589,0.876,0.560,1.078,0.770,0.351,0.611,0.575,��쐼,5.0,��
2022/03/17,15:40,0.590,0.877,0.560,1.081,0.770,0.351,0.613,0.578,��,5.8,��
2022/03/17,15:50,0.590,0.877,0.558,1.080,0.769,0.352,0.611,0.577,��,8.1,��
2022/03/17,16:00,0.591,0.879,0.560,1.082,0.770,0.350,0.613,0.578,��,9.2,��
2022/03/17,16:10,0.591,0.878,0.560,1.082,0.768,0.352,0.613,0.577,��,10.2,��
2022/03/17,16:20,0.588,0.879,0.559,1.080,0.768,0.351,0.613,0.577,��,9.9,��
2022/03/17,16:30,0.588,0.878,0.559,1.079,0.771,0.351,0.612,0.577,��,10.5,��
2022/03/17,16:40,0.590,0.876,0.559,1.079,0.769,0.351,0.611,0.576,��,8.3,��
2022/03/17,16:50,0.592,0.877,0.558,1.081,0.768,0.352,0.610,0.577,���k��,7.8,��
2022/03/17,17:00,0.588,0.878,0.559,1.080,0.769,0.350,0.611,0.577,���k��,6.1,��
2022/03/17,17:10,0.590,0.878,0.559,1.080,0.768,0.351,0.612,0.578,���k��,6.7,��
2022/03/17,17:20,0.589,0.880,0.561,1.077,0.768,0.352,0.610,0.580,�k��,5.0,��
2022/03/17,17:30,0.589,0.879,0.561,1.080,0.768,0.351,0.611,0.580,�k��,8.8,��
2022/03/17,17:40,0.591,0.880,0.559,1.079,0.766,0.351,0.612,0.578,�k��,7.0,��
2022/03/17,17:50,0.591,0.881,0.561,1.078,0.769,0.350,0.613,0.579,�k��,8.8,��
2022/03/17,18:00,0.591,0.877,0.561,1.078,0.771,0.350,0.612,0.580,�k��,6.6,��
2022/03/17,18:10,0.591,0.876,0.561,1.081,0.772,0.351,0.611,0.578,�k�k��,4.1,��
2022/03/17,18:20,0.592,0.877,0.562,1.081,0.771,0.350,0.612,0.578,�k��,5.3,��
2022/03/17,18:30,0.591,0.876,0.563,1.080,0.771,0.350,0.611,0.578,�k�k��,5.2,��
2022/03/17,18:40,0.591,0.879,0.560,1.080,0.772,0.352,0.613,0.580,�k�k��,5.3,��
2022/03/17,18:50,0.590,0.878,0.560,1.081,0.770,0.351,0.614,0.579,�k�k��,5.0,��
2022/03/17,19:00,0.590,0.880,0.561,1.081,0.771,0.350,0.613,0.580,�k�k��,5.6,��
2022/03/17,19:10,0.591,0.876,0.560,1.080,0.773,0.351,0.614,0.578,�k�k��,5.7,��
2022/03/17,19:20,0.590,0.878,0.561,1.078,0.769,0.349,0.613,0.579,�k�k��,6.4,��
2022/03/17,19:30,0.592,0.876,0.561,1.081,0.770,0.351,0.615,0.578,�k�k��,6.8,��
2022/03/17,19:40,0.591,0.878,0.561,1.081,0.771,0.350,0.613,0.578,�k,7.0,��
2022/03/17,19:50,0.588,0.879,0.561,1.078,0.772,0.349,0.613,0.578,�k�k��,7.8,��
2022/03/17,20:00,0.589,0.876,0.559,1.080,0.770,0.350,0.613,0.578,�k�k��,8.2,��
2022/03/17,20:10,0.589,0.877,0.561,1.079,0.772,0.350,0.613,0.579,�k�k��,9.0,��
2022/03/17,20:20,0.590,0.877,0.560,1.082,0.771,0.351,0.612,0.578,�k�k��,9.2,��
2022/03/17,20:30,0.588,0.877,0.559,1.082,0.771,0.350,0.613,0.578,�k�k��,8.2,��
2022/03/17,20:40,0.590,0.879,0.561,1.082,0.771,0.350,0.613,0.579,�k�k��,8.3,��
2022/03/17,20:50,0.591,0.877,0.560,1.081,0.771,0.350,0.615,0.579,�k�k��,8.3,��
2022/03/17,21:00,0.589,0.876,0.561,1.081,0.770,0.350,0.612,0.578,�k�k��,6.0,��
2022/03/17,21:10,0.590,0.878,0.561,1.081,0.771,0.349,0.614,0.578,�k�k��,5.2,��
2022/03/17,21:20,0.591,0.878,0.559,1.081,0.769,0.350,0.613,0.578,�k��,3.5,��
2022/03/17,21:30,0.591,0.878,0.560,1.080,0.770,0.350,0.614,0.579,�k�k��,3.9,��
2022/03/17,21:40,0.589,0.879,0.561,1.081,0.770,0.349,0.612,0.579,�k�k��,5.9,��
2022/03/17,21:50,0.589,0.878,0.561,1.081,0.770,0.349,0.613,0.579,�k�k��,5.0,��
2022/03/17,22:00,0.589,0.878,0.560,1.079,0.771,0.350,0.614,0.578,�k�k��,3.9,��
2022/03/17,22:10,0.589,0.877,0.560,1.080,0.770,0.349,0.612,0.578,�k,2.6,��
2022/03/17,22:20,0.588,0.876,0.560,1.080,0.769,0.350,0.612,0.579,�k,4.4,��
2022/03/17,22:30,0.589,0.877,0.559,1.081,0.769,0.350,0.613,0.579,�k,5.0,��
2022/03/17,22:40,0.589,0.878,0.560,1.082,0.770,0.350,0.614,0.579,�k�k��,5.6,��
2022/03/17,22:50,0.587,0.879,0.560,1.079,0.770,0.349,0.613,0.577,�k,5.4,��
2022/03/17,23:00,0.587,0.877,0.558,1.081,0.770,0.349,0.612,0.580,�k,5.4,��
2022/03/17,23:10,0.591,0.879,0.559,1.080,0.769,0.350,0.611,0.579,�k,6.1,��
2022/03/17,23:20,0.590,0.877,0.558,1.080,0.771,0.351,0.613,0.576,�k,5.8,��
2022/03/17,23:30,0.588,0.875,0.561,1.080,0.770,0.350,0.613,0.579,�k�k��,5.6,��
2022/03/17,23:40,0.590,0.877,0.558,1.080,0.770,0.351,0.612,0.579,�k,5.7,��
2022/03/17,23:50,0.590,0.876,0.560,1.079,0.772,0.348,0.612,0.577,�k,5.2,��
